Location: Bambrugge
(50.9212°N, 3.9299°E)
Time: 16:46:51
(UTC+00:00)

Helios 1A Rocket - Pass Details

Date: 18 August 2024
Orbit: 512 x 533 km, 98.3° (Epoch: 06 September)

Event Time Altitude Azimuth Distance (km) Brightness Sun altitude
Exits shadow 00:55:34 56° 69° (ENE) 648 3.2 -24.4°
Drops below altitude 10° 00:59:23 10° 353° (N) 1,810 6.3 -24.2°
Sets 01:01:32 0° 349° (N) 2,704 7.3 -24.1°
